MEA211 OLBA-LFPG

Flight info

Callsign MEA211
Flight time N/A
Altitude 40000
Route KUKLA M31 DESPO DCT BOSIS DCT EVENO DCT BENEM UN127 RIKSO DCT DISOR DCT LONTA UL608 DOLEV DCT YUYUH DCT GENLU DCT PODOB DCT LIKVI DCT MONID DCT RUGOG DCT RIFEN DCT SAFFA DCT ELMUR DCT RIPUS DCT DITON DCT HOC/N0454F390 DCT MOROK DCT PENDU DCT JAVVU DCT GIVRI/N0456F400 DCT TINIL
Aircraft A333/H-SDE3GHIJ2J3J5M1RVWXY/LB2D1

Departure

Time N/A
Airport Beirut Rafic Hariri International Airport (OLBA)

Arrival

Time 2026-05-04 16:16
Airport Charles de Gaulle International Airport (LFPG)
Time Latitude Longitude Altitude Speed Heading
2026-05-04 15:31 47.37698 6.39399 36978 ft 427 kts 261°
2026-05-04 15:31 47.37366 6.35043 36978 ft 427 kts 261°
2026-05-04 15:32 47.35779 6.14532 36983 ft 427 kts 259°
2026-05-04 15:34 47.34036 5.92917 36981 ft 427 kts 259°
2026-05-04 15:34 47.32960 5.79892 36986 ft 428 kts 260°
2026-05-04 15:35 47.31907 5.66901 36980 ft 427 kts 259°
2026-05-04 15:36 47.30839 5.53888 36977 ft 427 kts 259°
2026-05-04 15:36 47.30119 5.45239 36978 ft 427 kts 259°
2026-05-04 15:37 47.30582 5.36474 36985 ft 445 kts 286°
2026-05-04 15:37 47.31984 5.32675 36989 ft 457 kts 300°
2026-05-04 15:37 47.34226 5.29278 36983 ft 469 kts 317°
2026-05-04 15:38 47.37085 5.26879 36982 ft 479 kts 333°
2026-05-04 15:38 47.40129 5.24990 37004 ft 477 kts 329°
2026-05-04 15:38 47.42931 5.22893 36831 ft 467 kts 327°
2026-05-04 15:38 47.45801 5.20610 36004 ft 472 kts 327°
2026-05-04 15:39 47.48692 5.18256 35007 ft 482 kts 326°
2026-05-04 15:39 47.51631 5.15843 33861 ft 488 kts 327°
2026-05-04 15:39 47.57565 5.10957 31866 ft 491 kts 327°
2026-05-04 15:40 47.60329 5.08115 30752 ft 487 kts 315°
2026-05-04 15:40 47.62885 5.04881 29598 ft 489 kts 315°
2026-05-04 15:40 47.65496 5.01595 28519 ft 489 kts 316°
2026-05-04 15:40 47.68077 4.98355 27639 ft 485 kts 316°
2026-05-04 15:41 47.70605 4.95178 26967 ft 476 kts 316°
2026-05-04 15:41 47.73095 4.92044 26164 ft 471 kts 316°
2026-05-04 15:41 47.75580 4.88911 25373 ft 465 kts 316°
2026-05-04 15:41 47.78041 4.85806 24664 ft 458 kts 316°
2026-05-04 15:42 47.80429 4.82787 23993 ft 452 kts 316°
2026-05-04 15:42 47.82840 4.79736 23940 ft 452 kts 316°
2026-05-04 15:42 47.85238 4.76700 24010 ft 456 kts 316°
2026-05-04 15:42 47.87635 4.73658 23908 ft 451 kts 316°
2026-05-04 15:43 47.89998 4.70659 23912 ft 446 kts 316°
2026-05-04 15:43 47.92330 4.67694 23240 ft 442 kts 316°
2026-05-04 15:43 47.94659 4.64726 22387 ft 439 kts 316°
2026-05-04 15:43 47.96965 4.61785 21713 ft 433 kts 316°
2026-05-04 15:44 47.99216 4.58915 21006 ft 429 kts 316°
2026-05-04 15:44 48.01479 4.56023 20326 ft 423 kts 316°
2026-05-04 15:44 48.03690 4.53194 19664 ft 418 kts 316°
2026-05-04 15:44 48.05856 4.50420 19002 ft 415 kts 317°
2026-05-04 15:45 48.08060 4.47593 18926 ft 410 kts 317°
2026-05-04 15:45 48.10050 4.45040 19022 ft 415 kts 317°
2026-05-04 15:45 48.12392 4.42029 18903 ft 413 kts 317°
2026-05-04 15:45 48.14314 4.39543 18936 ft 405 kts 316°
2026-05-04 15:46 48.16431 4.36771 18943 ft 400 kts 316°
2026-05-04 15:46 48.18396 4.34197 18937 ft 399 kts 316°
2026-05-04 15:46 48.20516 4.31417 18943 ft 399 kts 315°
2026-05-04 15:46 48.22593 4.28690 18934 ft 399 kts 315°
2026-05-04 15:47 48.24669 4.25960 18936 ft 399 kts 315°
2026-05-04 15:47 48.26673 4.23108 18918 ft 397 kts 308°
2026-05-04 15:47 48.28478 4.19816 18955 ft 408 kts 307°
2026-05-04 15:47 48.30264 4.16562 18934 ft 410 kts 306°
2026-05-04 15:48 48.31136 4.14970 18923 ft 409 kts 306°
2026-05-04 15:48 48.32892 4.11770 18941 ft 409 kts 306°
2026-05-04 15:48 48.36486 4.05205 18953 ft 408 kts 307°
2026-05-04 15:49 48.38285 4.01914 18955 ft 409 kts 307°
2026-05-04 15:49 48.40095 3.98601 18955 ft 409 kts 307°
2026-05-04 15:49 48.41886 3.95318 18947 ft 409 kts 307°
2026-05-04 15:49 48.43682 3.92019 18966 ft 410 kts 307°
2026-05-04 15:50 48.45474 3.88727 18917 ft 408 kts 307°
2026-05-04 15:50 48.47271 3.85419 18957 ft 409 kts 307°
2026-05-04 15:50 48.49065 3.82114 18941 ft 409 kts 307°
2026-05-04 15:50 48.50874 3.78775 18932 ft 408 kts 307°
2026-05-04 15:51 48.52678 3.75442 18937 ft 408 kts 307°
2026-05-04 15:51 48.54380 3.72095 18933 ft 407 kts 301°
2026-05-04 15:51 48.55902 3.68549 18928 ft 394 kts 301°
2026-05-04 15:51 48.57381 3.65098 18931 ft 394 kts 301°
2026-05-04 15:52 48.58862 3.61650 18934 ft 394 kts 301°
2026-05-04 15:52 48.60342 3.58200 18938 ft 395 kts 301°
2026-05-04 15:52 48.61845 3.54691 18941 ft 403 kts 301°
2026-05-04 15:52 48.63373 3.51126 18943 ft 408 kts 301°
2026-05-04 15:53 48.64913 3.47528 18932 ft 408 kts 301°
2026-05-04 15:53 48.66462 3.43995 18922 ft 399 kts 304°
2026-05-04 15:53 48.68048 3.40637 18912 ft 378 kts 304°
2026-05-04 15:53 48.69530 3.37506 18910 ft 359 kts 304°
2026-05-04 15:54 48.70880 3.34653 18809 ft 346 kts 303°
2026-05-04 15:54 48.72262 3.31736 18638 ft 334 kts 303°
2026-05-04 15:54 48.73509 3.29101 18510 ft 329 kts 303°
2026-05-04 15:54 48.74769 3.26435 18381 ft 328 kts 303°
2026-05-04 15:55 48.76044 3.23732 18264 ft 328 kts 303°
2026-05-04 15:55 48.77370 3.20925 18144 ft 329 kts 303°
2026-05-04 15:55 48.78704 3.18096 18023 ft 328 kts 303°
2026-05-04 15:55 48.80030 3.15277 17898 ft 328 kts 304°
2026-05-04 15:56 48.81342 3.12490 17775 ft 328 kts 304°
2026-05-04 15:56 48.82673 3.09659 17646 ft 327 kts 304°
2026-05-04 15:56 48.83998 3.06840 17515 ft 327 kts 304°
2026-05-04 15:56 48.85303 3.04060 17389 ft 326 kts 304°
2026-05-04 15:57 48.86617 3.01254 17265 ft 325 kts 304°
2026-05-04 15:57 48.87931 2.98449 17142 ft 324 kts 304°
2026-05-04 15:57 48.89237 2.95655 17017 ft 324 kts 304°
2026-05-04 15:57 48.90533 2.92883 16898 ft 322 kts 304°
2026-05-04 15:58 48.91818 2.90130 16773 ft 315 kts 304°
2026-05-04 15:58 48.93023 2.87448 16720 ft 301 kts 298°
2026-05-04 15:58 48.93630 2.84465 16415 ft 295 kts 274°
2026-05-04 15:58 48.93531 2.81359 16041 ft 297 kts 264°
2026-05-04 15:59 48.93365 2.78146 15542 ft 304 kts 265°
2026-05-04 15:59 48.93196 2.74940 14966 ft 303 kts 265°
2026-05-04 15:59 48.93031 2.71816 14423 ft 295 kts 266°
2026-05-04 15:59 48.92868 2.68739 13928 ft 293 kts 266°
2026-05-04 16:00 48.92705 2.65674 13437 ft 292 kts 266°
2026-05-04 16:00 48.92540 2.62586 12937 ft 290 kts 266°
2026-05-04 16:00 48.92375 2.59543 12442 ft 287 kts 266°
2026-05-04 16:00 48.92212 2.56527 11946 ft 285 kts 266°
2026-05-04 16:01 48.92050 2.53570 11454 ft 283 kts 266°
2026-05-04 16:01 48.91888 2.50598 10955 ft 281 kts 266°
2026-05-04 16:01 48.91727 2.47677 10461 ft 278 kts 266°
2026-05-04 16:01 48.91567 2.44777 9965 ft 275 kts 266°
2026-05-04 16:02 48.91408 2.41908 9468 ft 273 kts 266°
2026-05-04 16:02 48.91249 2.39047 9052 ft 274 kts 266°
2026-05-04 16:02 48.90934 2.33442 8172 ft 284 kts 265°
2026-05-04 16:03 48.90752 2.30238 7778 ft 285 kts 265°
2026-05-04 16:03 48.90584 2.27277 7412 ft 285 kts 265°
2026-05-04 16:03 48.90440 2.24740 7100 ft 286 kts 265°
2026-05-04 16:03 48.90287 2.22086 6676 ft 279 kts 265°
2026-05-04 16:04 48.90127 2.19312 6282 ft 266 kts 265°
2026-05-04 16:04 48.89831 2.14190 5572 ft 257 kts 265°
2026-05-04 16:04 48.89677 2.11504 5197 ft 255 kts 265°
2026-05-04 16:05 48.89493 2.08857 4913 ft 252 kts 263°
2026-05-04 16:05 48.89251 2.06204 4947 ft 252 kts 262°
2026-05-04 16:05 48.89840 2.01249 4932 ft 232 kts 291°
2026-05-04 16:06 48.90569 1.99134 4890 ft 222 kts 314°
2026-05-04 16:06 48.94553 1.98223 4925 ft 214 kts 43°
2026-05-04 16:07 48.95397 2.00076 4938 ft 215 kts 65°
2026-05-04 16:07 48.96360 2.06739 4920 ft 215 kts 81°
2026-05-04 16:08 48.96588 2.08965 4917 ft 213 kts 81°
2026-05-04 16:08 48.97153 2.14801 4924 ft 177 kts 81°
2026-05-04 16:09 48.97456 2.18508 4960 ft 174 kts 83°
2026-05-04 16:09 48.97729 2.21985 4890 ft 160 kts 83°
2026-05-04 16:10 48.97915 2.25362 4822 ft 164 kts 85°
2026-05-04 16:11 48.98195 2.30394 3698 ft 152 kts 84°
2026-05-04 16:11 48.98282 2.31908 3487 ft 140 kts 84°
2026-05-04 16:12 48.98528 2.36277 2894 ft 137 kts 85°
2026-05-04 16:12 48.98769 2.40603 2326 ft 136 kts 85°
2026-05-04 16:13 48.98928 2.43497 1950 ft 137 kts 85°
2026-05-04 16:13 48.99089 2.46419 1574 ft 138 kts 86°
2026-05-04 16:14 48.99247 2.49325 1201 ft 138 kts 86°
2026-05-04 16:14 48.99405 2.52219 836 ft 137 kts 86°
2026-05-04 16:15 48.99631 2.56430 405 ft 110 kts 85°
2026-05-04 16:16 48.99694 2.57697 405 ft 10 kts 85°
2026-05-04 16:16 48.99695 2.57712 405 ft 1 kts 84°
2026-05-04 16:17 48.99727 2.58042 405 ft 22 kts 69°
2026-05-04 16:18 48.99999 2.58720 405 ft 21 kts 338°
2026-05-04 16:18 49.00021 2.58522 405 ft 20 kts 262°
2026-05-04 16:19 48.99983 2.57833 405 ft 12 kts 264°
2026-05-04 16:19 49.00008 2.57745 405 ft 6 kts 341°
2026-05-04 16:20 49.00119 2.57720 405 ft 1 kts
2026-05-04 16:20 49.00147 2.57721 405 ft 0 kts 355°